Weather History for Jackson Hawkins Field, MS

Change the Weather History Date:

Saturday, September 14, 2013

  Actual Average (KJAN) Record (KJAN)
Temperature  
Mean Temperature 77 °F 76 °F  
Max Temperature 89 °F 87 °F 102 °F (1921)
Min Temperature 66 °F 65 °F 42 °F (1902)
Degree Days  
Heating Degree Days 0 0  
Month to date heating degree days 0  
Since 1 July heating degree days 0  
Cooling Degree Days 12 11  
Month to date cooling degree days 185  
Year to date cooling degree days 1984  
Growing Degree Days 27 (Base 50)    
Moisture  
Dew Point 55 °F    
Average Humidity 50    
Maximum Humidity 68    
Minimum Humidity 27    
Precipitation  
Precipitation 0.00 in 0.10 in 1.62 in (1962)
Month to date precipitation 1.40  
Year to date precipitation 38.68  
Sea Level Pressure  
Sea Level Pressure 29.96 in    
Wind  
Wind Speed 5 mph (NNE)    
Max Wind Speed 12 mph    
Max Gust Speed 16 mph    
Visibility 10 miles    
Events      
T = Trace of Precipitation, MM = Missing Value Source: NWS Daily Summary

Daily Weather History Graph

Daily Weather History Graph

Search for Another Location

Airport:

Trip Planner

Search our weather history database for the weather conditions in past years. The results will help you decide how hot, cold, wet, or windy it might be!

Date:

Astronomy

Sep. 14, 2013 Rise Set
Actual Time 6:44 AM CDT 7:07 PM CDT
Civil Twilight 6:19 AM CDT 7:32 PM CDT
Nautical Twilight 5:50 AM CDT 8:01 PM CDT
Astronomical Twilight 5:21 AM CDT 8:30 PM CDT
Moon 3:36 PM CDT (9/14) 1:29 AM CDT (9/14)
Length of Visible Light 13h 12m
Length of Day
12h 23m
Waxing Gibbous, 72% of the Moon is Illuminated
Sep 14
Waxing Gibbous
Sep 19
Full
Sep 26
Last Quarter
Oct 4
New
Oct 11
First Quarter

Hourly Weather History & Observations

Time (CDT) Temp. Heat Index Dew Point Humidity Pressure Visibility Wind Dir Wind Speed Gust Speed Precip Events Conditions
12:53 AM 73.0 °F - 57.9 °F 59% 29.92 in 10.0 mi Variable 4.6 mph - N/A   Clear
1:53 AM 72.0 °F - 57.9 °F 61% 29.92 in 10.0 mi NE 5.8 mph - N/A   Clear
2:53 AM 71.1 °F - 57.0 °F 61% 29.92 in 10.0 mi Variable 5.8 mph - N/A   Clear
3:53 AM 69.1 °F - 55.9 °F 63% 29.92 in 10.0 mi Calm Calm - N/A   Clear
4:53 AM 70.0 °F - 55.0 °F 59% 29.92 in 10.0 mi ENE 11.5 mph 16.1 mph N/A   Clear
5:53 AM 68.0 °F - 55.0 °F 63% 29.94 in 10.0 mi ENE 5.8 mph - N/A   Clear
6:53 AM 66.9 °F - 55.9 °F 68% 29.96 in 10.0 mi NNE 3.5 mph - N/A   Clear
7:53 AM 66.9 °F - 55.9 °F 68% 29.97 in 10.0 mi NE 5.8 mph - N/A   Clear
8:53 AM 70.0 °F - 55.0 °F 59% 29.99 in 10.0 mi NE 9.2 mph - N/A   Clear
9:53 AM 73.0 °F - 55.9 °F 55% 30.01 in 10.0 mi ENE 10.4 mph - N/A   Clear
10:53 AM 77.0 °F - 55.9 °F 48% 30.00 in 10.0 mi Variable 4.6 mph - N/A   Clear
11:53 AM 81.0 °F 80.8 °F 55.9 °F 42% 29.99 in 10.0 mi NE 9.2 mph - N/A   Clear
12:53 PM 82.9 °F 82.0 °F 55.0 °F 38% 29.98 in 10.0 mi NE 8.1 mph - N/A   Clear
1:53 PM 84.0 °F 82.9 °F 55.0 °F 37% 29.96 in 10.0 mi Calm Calm - N/A   Clear
2:53 PM 86.0 °F 84.5 °F 55.0 °F 35% 29.94 in 10.0 mi Calm Calm - N/A   Clear
3:53 PM 88.0 °F 85.9 °F 54.0 °F 31% 29.92 in 10.0 mi NW 8.1 mph - N/A   Clear
4:53 PM 87.1 °F - 51.1 °F 29% 29.92 in 10.0 mi North 5.8 mph - N/A   Clear
5:53 PM 87.1 °F - 48.9 °F 27% 29.93 in 10.0 mi Calm Calm - N/A   Clear
6:53 PM 82.9 °F - 48.9 °F 31% 29.94 in 10.0 mi Calm Calm - N/A   Clear
7:53 PM 78.1 °F - 51.1 °F 39% 29.96 in 10.0 mi North 3.5 mph - 0.00 in   Clear
8:53 PM 73.9 °F - 54.0 °F 50% 29.98 in 10.0 mi NW 3.5 mph - N/A   Clear
9:53 PM 72.0 °F - 53.1 °F 51% 29.98 in 10.0 mi Calm Calm - N/A   Clear
10:53 PM 68.0 °F - 55.0 °F 63% 29.99 in 10.0 mi Calm Calm - N/A   Clear
11:53 PM 66.9 °F - 55.0 °F 66% 30.00 in 10.0 mi ENE 3.5 mph - N/A   Clear